Overview Statistics Trail Chart Weather Telemetry Raw packets
 

This is the latest recevied weather packets stored in our database for station/object HB9FHL-13. If no packets are shown the sender has not sent any weather packets the latest 10 day(s).

<< 64 65 66 67 68 69 70 >>
Time Temp. Humidity Pressure Rain* Wind** Luminosity Snow
1788286315 18.89° C - 1023.1 hPa 0 mm - - -
1788286014 18.89° C - 1023.3 hPa 0 mm - - -
1788285714 19.44° C - 1025.1 hPa 0 mm - - -
1788285413 19.44° C - 1023.5 hPa 0 mm - - -
1788285113 19.44° C - 1020.2 hPa 0 mm - - -
1788284809 19.44° C - 1024.6 hPa 0 mm - - -
1788284509 20° C - 1023.3 hPa 0 mm - - -
1788284208 20° C - 1022.5 hPa 0 mm - - -
1788283908 18.89° C - 1022.8 hPa 0 mm - - -
1788283608 20.56° C - 1023.8 hPa 0 mm - - -
1788283307 20° C - 1022.3 hPa 0 mm - - -
1788283007 19.44° C - 1019.9 hPa 0 mm - - -
1788282706 20° C - 1024.5 hPa 0 mm - - -
1788282406 20° C - 1024.1 hPa 0 mm - - -
1788282105 20° C - 1020.7 hPa 0 mm - - -
1788281805 20° C - 1021.3 hPa 0 mm - - -
1788281504 20° C - 1023.4 hPa 0 mm - - -
1788281204 20.56° C - 1021.7 hPa 0 mm - - -
1788280603 20° C - 1023.5 hPa 0 mm - - -
1788280302 20.56° C - 1023 hPa 0 mm - - -
1788280002 20.56° C - 1020.8 hPa 0 mm - - -
1788279701 21.11° C - 1022.4 hPa 0 mm - - -
1788279401 20.56° C - 1022.1 hPa 0 mm - - -
1788279097 21.11° C - 1021.1 hPa 0 mm - - -
1788278496 21.11° C - 1018.9 hPa 0 mm - - -

* Rain since midnight (hover to see other rain measurements)
** Current wind speed in m/s (hover to see current wind gust speed)